When you browse on this site, cookies collect data to enhance your experience and personalize the content and advertising you see.
Visit our Privacy Policy to learn more. By continuing to use the site, you agree to this use of cookies and data.
  • In United Kingdom
  • List of Countries
  • For 7 days
  • Water Temperature
  • Satellite Maps
  • Weather Map
  • Weather Widgets
  • user-avatar
    Login

    Hourly Weather Veszprem

    Today, 25 June, Tuesday

    Time Temperature Precipitation Wind Pressure Humidity
    00:00 +21°C° 0 mm 1 mps 744 mmHg 90%
    01:00 +21°C° 0 mm 1 mps 745 mmHg 90%
    02:00 +21°C° 0.1 mm 1 mps 744 mmHg 90%
    03:00 +21°C° 0.1 mm 1 mps 744 mmHg 89%
    04:00 +21°C° 0.1 mm 1 mps 744 mmHg 89%
    05:00 +22°C° 0 mm 1 mps 745 mmHg 85%
    06:00 +23°C° 0 mm 1 mps 745 mmHg 82%
    07:00 +24°C° 0 mm 1 mps 745 mmHg 79%
    08:00 +25°C° 0 mm 2 mps 746 mmHg 75%
    09:00 +26°C° 0 mm 2 mps 746 mmHg 72%
    10:00 +27°C° 0 mm 2 mps 746 mmHg 69%
    11:00 +28°C° 0 mm 2 mps 746 mmHg 66%
    12:00 +29°C° 0 mm 2 mps 746 mmHg 64%
    13:00 +30°C° 0 mm 3 mps 746 mmHg 62%
    14:00 +30°C° 0 mm 2 mps 746 mmHg 62%
    15:00 +30°C° 0 mm 2 mps 745 mmHg 62%
    16:00 +30°C° 0 mm 2 mps 745 mmHg 63%
    17:00 +29°C° 0 mm 2 mps 745 mmHg 68%
    18:00 +28°C° 0 mm 2 mps 745 mmHg 73%
    19:00 +26°C° 0 mm 1 mps 746 mmHg 78%
    20:00 +25°C° 0 mm 1 mps 746 mmHg 82%
    21:00 +24°C° 0 mm 1 mps 746 mmHg 85%
    22:00 +23°C° 0 mm 1 mps 746 mmHg 88%
    23:00 +23°C° 0 mm 1 mps 746 mmHg 88%

    Tomorrow, 26 June, Wednesday

    Time Temperature Precipitation Wind Pressure Humidity
    00:00 +23°C° 0 mm 1 mps 746 mmHg 89%
    01:00 +22°C° 0 mm 1 mps 746 mmHg 89%
    02:00 +22°C° 0 mm 1 mps 746 mmHg 90%
    03:00 +22°C° 0 mm 1 mps 746 mmHg 90%
    04:00 +22°C° 0 mm 1 mps 746 mmHg 90%
    05:00 +23°C° 0 mm 1 mps 746 mmHg 86%
    06:00 +25°C° 0 mm 1 mps 746 mmHg 82%
    07:00 +26°C° 0 mm 1 mps 746 mmHg 78%
    08:00 +27°C° 0 mm 1 mps 746 mmHg 74%
    09:00 +28°C° 0 mm 1 mps 746 mmHg 70%
    10:00 +29°C° 0 mm 1 mps 747 mmHg 66%
    11:00 +30°C° 0 mm 2 mps 746 mmHg 63%
    12:00 +31°C° 0 mm 2 mps 746 mmHg 60%
    13:00 +31°C° 0 mm 2 mps 746 mmHg 57%
    14:00 +31°C° 0 mm 1 mps 746 mmHg 57%
    15:00 +31°C° 0 mm 1 mps 745 mmHg 58%
    16:00 +31°C° 0 mm 1 mps 745 mmHg 58%
    17:00 +30°C° 0 mm 1 mps 744 mmHg 63%
    18:00 +29°C° 0 mm 1 mps 744 mmHg 69%
    19:00 +27°C° 0 mm 1 mps 744 mmHg 74%
    20:00 +26°C° 0 mm 1 mps 744 mmHg 76%
    21:00 +25°C° 0 mm 1 mps 744 mmHg 77%
    22:00 +25°C° 0 mm 1 mps 744 mmHg 78%
    23:00 +24°C° 0 mm 1 mps 744 mmHg 81%

    Day after tomorrow, 27 June, Thursday

    Time Temperature Precipitation Wind Pressure Humidity
    00:00 +24°C° 0 mm 1 mps 744 mmHg 83%
    01:00 +24°C° 0 mm 2 mps 743 mmHg 86%
    02:00 +23°C° 0 mm 2 mps 743 mmHg 86%
    03:00 +23°C° 0 mm 2 mps 743 mmHg 86%
    04:00 +23°C° 0 mm 2 mps 742 mmHg 86%
    05:00 +24°C° 0 mm 2 mps 742 mmHg 83%
    06:00 +25°C° 0 mm 2 mps 742 mmHg 79%
    07:00 +27°C° 0 mm 3 mps 742 mmHg 76%
    08:00 +28°C° 0 mm 3 mps 742 mmHg 73%
    09:00 +29°C° 0 mm 4 mps 742 mmHg 70%
    10:00 +30°C° 0 mm 4 mps 742 mmHg 67%
    11:00 +32°C° 0 mm 5 mps 742 mmHg 66%
    12:00 +32°C° 0 mm 6 mps 741 mmHg 65%
    13:00 +33°C° 0 mm 6 mps 741 mmHg 64%
    14:00 +32°C° 0 mm 6 mps 741 mmHg 64%
    15:00 +30°C° 0 mm 6 mps 740 mmHg 64%
    16:00 +30°C° 0 mm 6 mps 740 mmHg 63%
    17:00 +28°C° 0 mm 6 mps 740 mmHg 65%
    18:00 +26°C° 0 mm 5 mps 740 mmHg 67%
    19:00 +23°C° 0 mm 4 mps 740 mmHg 68%
    20:00 +22°C° 0 mm 4 mps 741 mmHg 70%
    21:00 +21°C° 0 mm 4 mps 741 mmHg 71%
    22:00 +20°C° 0 mm 5 mps 742 mmHg 73%
    23:00 +19°C° 0 mm 4 mps 742 mmHg 70%

    28 June, Friday

    Time Temperature Precipitation Wind Pressure Humidity
    00:00 +18°C° 0 mm 4 mps 742 mmHg 68%
    01:00 +17°C° 0 mm 4 mps 742 mmHg 66%
    02:00 +17°C° 0 mm 4 mps 742 mmHg 67%
    03:00 +15°C° 0 mm 4 mps 742 mmHg 68%
    04:00 +15°C° 0 mm 4 mps 742 mmHg 69%
    05:00 +17°C° 0 mm 4 mps 742 mmHg 69%
    06:00 +18°C° 0 mm 4 mps 742 mmHg 68%
    07:00 +19°C° 0 mm 5 mps 742 mmHg 68%
    08:00 +20°C° 0 mm 5 mps 742 mmHg 65%
    09:00 +21°C° 0 mm 5 mps 743 mmHg 62%
    10:00 +22°C° 0 mm 5 mps 743 mmHg 59%
    11:00 +23°C° 0 mm 5 mps 742 mmHg 58%
    12:00 +23°C° 0 mm 5 mps 742 mmHg 57%
    13:00 +25°C° 0 mm 5 mps 742 mmHg 56%
    14:00 +25°C° 0 mm 5 mps 742 mmHg 57%
    15:00 +25°C° 0 mm 5 mps 742 mmHg 57%
    16:00 +25°C° 0 mm 5 mps 741 mmHg 58%
    17:00 +23°C° 0 mm 4 mps 741 mmHg 63%
    18:00 +22°C° 0 mm 4 mps 741 mmHg 68%
    19:00 +20°C° 0 mm 3 mps 741 mmHg 74%
    20:00 +19°C° 0 mm 3 mps 742 mmHg 74%
    21:00 +18°C° 0 mm 3 mps 742 mmHg 73%
    22:00 +18°C° 0 mm 3 mps 742 mmHg 73%
    23:00 +17°C° 0 mm 3 mps 742 mmHg 77%

    29 June, Saturday

    Time Temperature Precipitation Wind Pressure Humidity
    00:00 +16°C° 0 mm 3 mps 742 mmHg 80%
    01:00 +16°C° 0 mm 3 mps 742 mmHg 84%
    02:00 +14°C° 0 mm 3 mps 742 mmHg 85%
    03:00 +14°C° 0 mm 3 mps 742 mmHg 87%
    04:00 +14°C° 0 mm 4 mps 742 mmHg 88%
    05:00 +15°C° 0 mm 4 mps 742 mmHg 85%
    06:00 +17°C° 0 mm 4 mps 743 mmHg 81%
    07:00 +18°C° 0 mm 4 mps 743 mmHg 77%
    08:00 +19°C° 0 mm 3 mps 743 mmHg 73%
    09:00 +20°C° 0 mm 3 mps 743 mmHg 68%
    10:00 +23°C° 0 mm 2 mps 744 mmHg 63%
    11:00 +23°C° 0 mm 2 mps 744 mmHg 60%
    12:00 +24°C° 0 mm 2 mps 743 mmHg 56%
    13:00 +24°C° 0 mm 2 mps 743 mmHg 53%
    14:00 +24°C° 0 mm 2 mps 743 mmHg 53%
    15:00 +25°C° 0 mm 3 mps 743 mmHg 53%
    16:00 +25°C° 0 mm 3 mps 743 mmHg 54%
    17:00 +24°C° 0 mm 2 mps 743 mmHg 60%
    18:00 +23°C° 0 mm 2 mps 743 mmHg 65%
    19:00 +21°C° 0 mm 1 mps 743 mmHg 71%
    20:00 +20°C° 0 mm 1 mps 743 mmHg 74%
    21:00 +19°C° 0 mm 1 mps 743 mmHg 76%
    22:00 +18°C° 0 mm 1 mps 744 mmHg 79%
    23:00 +16°C° 0 mm 1 mps 744 mmHg 81%

    30 June, Sunday

    Time Temperature Precipitation Wind Pressure Humidity
    00:00 +16°C° 0 mm 1 mps 744 mmHg 83%
    01:00 +15°C° 0 mm 1 mps 744 mmHg 85%
    02:00 +15°C° 0 mm 2 mps 744 mmHg 86%
    03:00 +15°C° 0 mm 2 mps 744 mmHg 87%
    04:00 +14°C° 0 mm 2 mps 744 mmHg 88%
    05:00 +16°C° 0 mm 2 mps 744 mmHg 82%
    06:00 +17°C° 0 mm 2 mps 744 mmHg 77%
    07:00 +19°C° 0 mm 3 mps 744 mmHg 72%
    08:00 +20°C° 0 mm 3 mps 744 mmHg 69%
    09:00 +22°C° 0 mm 3 mps 744 mmHg 65%
    10:00 +24°C° 0 mm 3 mps 745 mmHg 61%
    11:00 +24°C° 0 mm 3 mps 744 mmHg 60%
    12:00 +25°C° 0 mm 3 mps 744 mmHg 59%
    13:00 +26°C° 0 mm 4 mps 744 mmHg 58%
    14:00 +26°C° 0 mm 4 mps 743 mmHg 58%
    15:00 +26°C° 0 mm 3 mps 743 mmHg 58%
    16:00 +26°C° 0 mm 3 mps 743 mmHg 58%
    17:00 +25°C° 0 mm 3 mps 743 mmHg 64%
    18:00 +22°C° 0 mm 3 mps 742 mmHg 70%
    19:00 +21°C° 0 mm 3 mps 742 mmHg 75%
    20:00 +20°C° 0 mm 3 mps 742 mmHg 77%
    21:00 +19°C° 0 mm 3 mps 742 mmHg 78%
    22:00 +18°C° 0 mm 2 mps 742 mmHg 79%
    23:00 +17°C° 0 mm 2 mps 742 mmHg 80%
    Show more